ATLAS 5 CENTAUR DEB, 52974

Orbit data source: Space-Track

ATLAS 5 CENTAUR DEB, 52974 is space debris in HEO originally from a launch on Wed, 17 Oct 2018 UTC launched from the Air Force Eastern Test Range (AFETR). Debris objects in space refer to the collection of defunct objects orbiting the Earth. Examples of debris include non-operational satellites, rocket bodies, and fragments generated from explosions, collisions, or faulty payload assembly.

Loading next visibility...
Identifier
52974, 2018-079GY
Orbit
HEO
Country
Flag of USUS
Related business
Flag of USUnited Launch Alliance/Lockheed Martin (US)
Manufacturer
ULA Decatur
Mission
Spacecraft
Bus & Motor
Unknown
Mass
Unknown
Launch date (UTC)
2018-10-17 (8 years ago)
Launch vehicle
Unknown
Launch site
Air Force Eastern Test Range (AFETR)
Object type
Payload
Rocket body
Debris
Shape & HBR
Unknown shape, 1.1 m
Radar Cross Section
RCS unknown

Expand to show TLE details & history
Last TLE update: 7 months ago

TLE from 7 months ago
0 ATLAS 5 CENTAUR DEB
1 52974U 18079GY  25288.81429340 -.00000148  00000-0  00000+0 0  9991
2 52974  13.0934  48.0784 4718543 292.3385  25.1577  1.86123157 26733
Epoch: 2025-10-15T19:32Z
TLE epoch observation values (Epoch: 2025-10-15T19:32:34.949Z)
Latitude
-0.00007°
Longitude
90.34105°
Altitude
12,001.629 km
Speed
5.394 km/s
True Right ascension
03h 12m 16s
True Declination
0° 00' 00"
Sunlit
Object was in daylight at epoch
Visualization orbit readout
Latitude
Unknown
Longitude
Unknown
Altitude
Unknown
Speed
Unknown
Apparent Right ascension
Unknown
Apparent Declination
Unknown
Sunlit
N/A
Visualization observer readout
Local Sidereal Time
00:35:08
Azimuth
Unknown
Elevation
Unknown
Doppler factor
Unknown
Orbital elements
Apogee altitude
34,714.724 km
Perigee altitude
8,367.22 km
Semi-major axis
27,919.109 km
Eccentricity
0.47185
Inclination
13.0934°
RAAN
48.0784°
Arg. of periapsis
292.3385°
True anomaly
67.87183°
Mean anomaly
25.1577°
Eccentric anomaly
43.90606°
Mean motion
0.46525 °/min
Orbital period
773.77 mins
BSTAR
0
Loading maneuver chart data...
Computing Atmospheric mass density...

Documentation

Showing up to 5 results
|